Location: Namasale
(1.5000°N, 32.6167°E)
Time: 21:11:08
(UTC+00:00)

Envisat - Pass Details

Date: 06 December 2021
Orbit: 764 x 766 km, 98.2° (Epoch: 25 January)

Event Time Altitude Azimuth Distance (km) Brightness Sun altitude
Rises 02:48:54 0° 360° (N) 3,214 6.0 -12.5°
Reaches altitude 10° 02:51:17 10° 354° (N) 2,291 5.2 -11.9°
Maximum altitude 02:56:04 44° 282° (WNW) 1,041 3.3 -10.8°
Drops below altitude 10° 03:00:53 10° 210° (SSW) 2,298 5.4 -9.7°
Sets 03:03:16 0° 204° (SSW) 3,225 6.2 -9.2°
